| time (UTC) | temp F | wind direction | speed knots | gust knots | rain 1hr in | rain 24hr in | rain mn in | humidity % | barometer mb |
| 20260905161456 | 73 | 264 | 1.7 | 3.5 | 0.00 | 0.00 | 0.00 | 71 | 1015.6 |
| 20260905155959 | 73 | 301 | 1.7 | 4.3 | 0.00 | 0.00 | 0.00 | 72 | 1015.6 |
| 20260905154457 | 72 | 340 | 1.7 | 4.3 | 0.00 | 0.00 | 0.00 | 72 | 1015.8 |
| 20260905151456 | 72 | 237 | 1.7 | 3.5 | 0.00 | 0.00 | 0.00 | 76 | 1015.9 |
| 20260905145959 | 72 | 312 | 1.7 | 7.0 | 0.00 | 0.00 | 0.00 | 75 | 1015.8 |
| 20260905144456 | 71 | 350 | 1.7 | 3.5 | 0.00 | 0.00 | 0.00 | 74 | 1015.9 |
| 20260905141456 | 69 | 355 | 0.9 | 1.7 | 0.00 | 0.00 | 0.00 | 82 | 1015.9 |
| 20260905140000 | 70 | 355 | 1.7 | 5.2 | 0.00 | 0.00 | 0.00 | 82 | 1015.8 |
| 20260905131457 | 67 | 315 | 0.9 | 2.6 | 0.00 | 0.00 | 0.00 | 90 | 1015.8 |
| 20260905125958 | 66 | 315 | 0.9 | 3.5 | 0.00 | 0.00 | 0.00 | 94 | 1016.0 |
| 20260905124456 | 65 | 341 | 0.9 | 2.6 | 0.00 | 0.00 | 0.00 | 98 | 1016.2 |
| 20260905122955 | 64 | 300 | 0.9 | 3.5 | 0.00 | 0.00 | 0.00 | 98 | 1015.9 |
| 20260905121455 | 63 | 211 | 0.0 | 1.7 | 0.00 | 0.00 | 0.00 | 99 | 1015.9 |
| 20260905115959 | 61 | 211 | 0.0 | 0.9 | 0.00 | 0.00 | 0.00 | 99 | 1015.9 |
| 20260905114456 | 59 | 211 | 0.0 | 0.0 | 0.00 | 0.00 | 0.00 | 99 | 1015.7 |
| 20260905112955 | 58 | 211 | 0.0 | 0.0 | 0.00 | 0.00 | 0.00 | 98 | 1015.4 |
| 20260905111458 | 58 | 211 | 0.0 | 0.0 | 0.00 | 0.00 | 0.00 | 98 | 1015.3 |
| 20260905104455 | 57 | 211 | 0.0 | 0.0 | 0.00 | 0.00 | 0.00 | 97 | 1015.5 |
| 20260905102955 | 58 | 211 | 0.0 | 0.0 | 0.00 | 0.00 | 0.00 | 98 | 1015.1 |
| 20260905101456 | 58 | 211 | 0.0 | 0.0 | 0.00 | 0.00 | 0.00 | 98 | 1014.9 |
| 20260905095958 | 58 | 211 | 0.0 | 0.0 | 0.00 | 0.00 | 0.00 | 97 | 1014.9 |
| 20260905094455 | 58 | 211 | 0.0 | 0.0 | 0.00 | 0.00 | 0.00 | 98 | 1014.9 |
| 20260905092956 | 58 | 211 | 0.0 | 0.0 | 0.00 | 0.00 | 0.00 | 97 | 1014.8 |
| 20260905091455 | 58 | 211 | 0.0 | 0.0 | 0.00 | 0.00 | 0.00 | 97 | 1014.7 |
| 20260905085958 | 59 | 211 | 0.0 | 0.0 | 0.00 | 0.00 | 0.00 | 97 | 1014.5 |
| 20260905084455 | 59 | 211 | 0.0 | 0.0 | 0.00 | 0.00 | 0.00 | 97 | 1014.5 |
| 20260905082956 | 59 | 211 | 0.0 | 0.0 | 0.00 | 0.00 | 0.00 | 97 | 1014.5 |
| 20260905081455 | 60 | 211 | 0.0 | 0.0 | 0.00 | 0.00 | 0.00 | 97 | 1014.6 |
| 20260905075958 | 60 | 211 | 0.0 | 0.0 | 0.00 | 0.00 | 0.00 | 97 | 1014.7 |
| 20260905074456 | 60 | 211 | 0.0 | 0.0 | 0.00 | 0.00 | 0.00 | 97 | 1014.9 |
| 20260905072955 | 61 | 211 | 0.0 | 0.0 | 0.00 | 0.00 | 0.00 | 97 | 1014.9 |
| 20260905071456 | 61 | 211 | 0.0 | 0.0 | 0.00 | 0.00 | 0.00 | 97 | 1014.8 |
| 20260905065958 | 61 | 211 | 0.0 | 0.0 | 0.00 | 0.00 | 0.00 | 97 | 1014.9 |
| 20260905064455 | 62 | 211 | 0.0 | 0.0 | 0.00 | 0.00 | 0.00 | 97 | 1015.1 |
| 20260905062956 | 62 | 211 | 0.0 | 0.0 | 0.00 | 0.00 | 0.00 | 96 | 1015.1 |
| 20260905061456 | 62 | 211 | 0.0 | 0.0 | 0.00 | 0.00 | 0.00 | 96 | 1015.2 |
| 20260905055958 | 63 | 211 | 0.0 | 0.0 | 0.00 | 0.00 | 0.00 | 96 | 1015.2 |
| 20260905054456 | 63 | 211 | 0.0 | 0.0 | 0.00 | 0.00 | 0.00 | 96 | 1015.3 |
| 20260905052956 | 63 | 211 | 0.0 | 0.0 | 0.00 | 0.00 | 0.00 | 96 | 1015.4 |
| 20260905051456 | 63 | 211 | 0.0 | 0.0 | 0.00 | 0.00 | 0.00 | 95 | 1015.4 |
| 20260905045957 | 63 | 211 | 0.0 | 0.0 | 0.00 | 0.00 | 0.00 | 95 | 1015.3 |
| 20260905044455 | 63 | 211 | 0.0 | 0.0 | 0.00 | 0.00 | 0.00 | 94 | 1015.3 |
| 20260905042954 | 64 | 211 | 0.0 | 0.0 | 0.00 | 0.00 | 0.00 | 93 | 1015.3 |
| 20260905041454 | 64 | 211 | 0.0 | 0.0 | 0.00 | 0.00 | 0.00 | 92 | 1015.4 |
| 20260905040006 | 65 | 211 | 0.0 | 0.9 | 0.00 | 0.00 | 0.00 | 92 | 1015.3 |
| 20260905034458 | 65 | 211 | 0.0 | 0.0 | 0.00 | 0.00 | 0.00 | 91 | 1015.3 |
| 20260905032958 | 65 | 211 | 0.0 | 1.7 | 0.00 | 0.00 | 0.00 | 91 | 1015.4 |
| 20260905031458 | 65 | 211 | 0.0 | 1.7 | 0.00 | 0.00 | 0.00 | 91 | 1015.2 |
| 20260905030001 | 65 | 211 | 0.0 | 0.9 | 0.00 | 0.00 | 0.00 | 92 | 1015.2 |
| 20260905024459 | 65 | 211 | 0.0 | 1.7 | 0.00 | 0.00 | 0.00 | 91 | 1015.2 |
| 20260905022958 | 65 | 211 | 0.0 | 0.9 | 0.00 | 0.00 | 0.00 | 91 | 1015.4 |
| 20260905021458 | 66 | 211 | 0.0 | 0.9 | 0.00 | 0.00 | 0.00 | 91 | 1015.3 |
| 20260905020001 | 66 | 211 | 0.0 | 0.0 | 0.00 | 0.00 | 0.00 | 90 | 1015.4 |
| 20260905014458 | 67 | 211 | 0.0 | 0.0 | 0.00 | 0.16 | 0.00 | 89 | 1015.4 |
| 20260905012959 | 67 | 211 | 0.0 | 0.0 | 0.00 | 0.16 | 0.00 | 87 | 1015.4 |
| 20260905011458 | 68 | 211 | 0.0 | 0.0 | 0.00 | 0.16 | 0.00 | 87 | 1015.4 |
| 20260905010002 | 68 | 211 | 0.0 | 0.0 | 0.00 | 0.16 | 0.00 | 88 | 1015.3 |
| 20260905002958 | 69 | 211 | 0.0 | 0.0 | 0.00 | 0.53 | 0.00 | 87 | 1015.3 |
| 20260905001458 | 69 | 211 | 0.0 | 0.0 | 0.00 | 0.53 | 0.00 | 85 | 1015.3 |
| 20260904234458 | 70 | 211 | 0.0 | 0.0 | 0.00 | 0.53 | 0.00 | 85 | 1015.2 |
| 20260904232958 | 71 | 211 | 0.0 | 0.0 | 0.00 | 0.53 | 0.00 | 86 | 1015.0 |
| 20260904230001 | 72 | 149 | 0.0 | 0.9 | 0.00 | 0.53 | 0.00 | 83 | 1014.6 |
| 20260904222957 | 73 | 260 | 0.0 | 0.0 | 0.00 | 0.53 | 0.00 | 77 | 1014.4 |
| 20260904220001 | 74 | 260 | 0.0 | 0.9 | 0.00 | 0.53 | 0.00 | 76 | 1014.2 |
| 20260904212957 | 75 | 260 | 0.9 | 1.7 | 0.00 | 0.53 | 0.00 | 75 | 1014.3 |
| 20260904211457 | 75 | 257 | 1.7 | 4.3 | 0.00 | 0.53 | 0.00 | 73 | 1014.6 |
| 20260904210000 | 76 | 333 | 0.9 | 1.7 | 0.00 | 0.53 | 0.00 | 73 | 1014.5 |
| 20260904204457 | 77 | 329 | 1.7 | 3.5 | 0.00 | 0.55 | 0.00 | 71 | 1014.7 |
| 20260904202957 | 76 | 34 | 0.9 | 1.7 | 0.00 | 0.55 | 0.00 | 75 | 1014.7 |
| 20260904201457 | 76 | 34 | 0.9 | 3.5 | 0.00 | 0.55 | 0.00 | 73 | 1014.6 |
| 20260904200000 | 76 | 302 | 1.7 | 3.5 | 0.00 | 0.55 | 0.00 | 75 | 1014.8 |
| 20260904194457 | 77 | 297 | 1.7 | 5.2 | 0.00 | 0.55 | 0.00 | 75 | 1015.0 |
| 20260904192957 | 77 | 245 | 1.7 | 7.8 | 0.00 | 0.55 | 0.00 | 72 | 1015.3 |
| 20260904191457 | 77 | 331 | 1.7 | 4.3 | 0.00 | 0.55 | 0.00 | 74 | 1015.3 |
| 20260904185959 | 76 | 286 | 1.7 | 5.2 | 0.00 | 0.55 | 0.00 | 76 | 1015.3 |
| 20260904184457 | 77 | 253 | 1.7 | 5.2 | 0.00 | 0.55 | 0.00 | 73 | 1015.5 |
| 20260904182957 | 77 | 303 | 1.7 | 4.3 | 0.00 | 0.55 | 0.00 | 72 | 1015.5 |
| 20260904181457 | 77 | 259 | 1.7 | 4.3 | 0.00 | 0.55 | 0.00 | 71 | 1015.7 |
| 20260904180000 | 76 | 278 | 1.7 | 5.2 | 0.00 | 0.55 | 0.00 | 73 | 1015.8 |
| 20260904174457 | 76 | 314 | 0.9 | 6.1 | 0.00 | 0.55 | 0.00 | 72 | 1015.9 |
| 20260904172957 | 76 | 288 | 0.9 | 3.5 | 0.00 | 0.55 | 0.00 | 74 | 1016.1 |
| 20260904171457 | 76 | 230 | 1.7 | 3.5 | 0.00 | 0.55 | 0.00 | 72 | 1016.1 |
| 20260904164456 | 76 | 293 | 0.9 | 2.6 | 0.00 | 0.55 | 0.00 | 75 | 1016.3 |
| 20260904162956 | 75 | 248 | 1.7 | 4.3 | 0.00 | 0.55 | 0.00 | 74 | 1016.4 |